This is the latest recevied weather packets stored in our database for station/object K5RWS. If no packets are shown the sender has not sent any weather packets the latest 10 day(s).
| Time | Temp. | Humidity | Pressure | Rain* | Wind** | Luminosity | Snow |
|---|---|---|---|---|---|---|---|
| 1777460103 | 5.56° C | 20% | 1020.2 hPa | 0 mm | - | 0 W/m² | - |
| 1777459800 | 5.56° C | 20% | 1020.1 hPa | 0 mm | - | 0 W/m² | - |
| 1777459497 | 5.56° C | 20% | 1020.1 hPa | 0 mm | - | 0 W/m² | - |
| 1777459194 | 5.56° C | 20% | 1019.8 hPa | 0 mm | - | 0 W/m² | - |
| 1777458892 | 6.11° C | 20% | 1019.7 hPa | 0 mm | - | 0 W/m² | - |
| 1777458588 | 6.67° C | 20% | 1019.8 hPa | 0 mm | - | 0 W/m² | - |
| 1777458279 | 6.67° C | 20% | 1019.6 hPa | 0 mm | - | 0 W/m² | - |
| 1777457974 | 5.56° C | 20% | 1019.5 hPa | 0 mm | - | 0 W/m² | - |
| 1777457671 | 5.56° C | 19% | 1019.6 hPa | 0 mm | - | 0 W/m² | - |
| 1777457365 | 6.11° C | 19% | 1019.6 hPa | 0 mm | - | 0 W/m² | - |
| 1777457061 | 6.67° C | 18% | 1019.5 hPa | 0 mm | - | 0 W/m² | - |
| 1777456757 | 7.78° C | 19% | 1019.4 hPa | 0 mm | - | 0 W/m² | - |
| 1777456456 | 8.33° C | 18% | 1019.5 hPa | 0 mm | - | 0 W/m² | - |
| 1777456153 | 8.89° C | 17% | 1019.6 hPa | 0 mm | - | 0 W/m² | - |
| 1777455848 | 8.89° C | 17% | 1019.5 hPa | 0 mm | - | 0 W/m² | - |
| 1777455546 | 9.44° C | 17% | 1020 hPa | 0 mm | - | 0 W/m² | - |
| 1777455242 | 10° C | 16% | 1019.5 hPa | 0 mm | - | 0 W/m² | - |
| 1777454939 | 9.44° C | 16% | 1019.6 hPa | 0 mm | - | 0 W/m² | - |
| 1777454636 | 9.44° C | 16% | 1019.5 hPa | 0 mm | - | 0 W/m² | - |
| 1777454332 | 9.44° C | 15% | 1019.5 hPa | 0 mm | - | 0 W/m² | - |
| 1777454029 | 10° C | 15% | 1019.8 hPa | 0 mm | - | 0 W/m² | - |
| 1777453726 | 9.44° C | 15% | 1019.7 hPa | 0 mm | - | 0 W/m² | - |
| 1777453423 | 8.89° C | 15% | 1019.6 hPa | 0 mm | - | 0 W/m² | - |
| 1777453119 | 9.44° C | 15% | 1019.6 hPa | 0 mm | - | 0 W/m² | - |
| 1777452817 | 9.44° C | 15% | 1019.6 hPa | 0 mm | - | 0 W/m² | - |
* Rain latest hour (hover to see other rain measurements)
** Current wind speed in m/s (hover to see current wind gust speed)